Regional Weather Roundup
Issued by NWS

Home | Current Version | Previous Version | Graphics & Text | Print | Product List | Glossary On
Versions: 1 2 3 4 5 6 7 8 9 10 11 12 13 14 15 16 17 18 19 20 21 22 23 24 25 26 27 28 29 30 31 32 33 34 35 36 37 38 39 40 41 42 43 44 45 46 47 48 49 50
000
ASUS43 KMPX 191110
RWRMN
WEATHER ROUNDUP FOR MINNESOTA
NATIONAL WEATHER SERVICE TWIN CITIES/CHANHASSEN MN
600 AM CDT THU APR 19 2018


NOTE: "FAIR" INDICATES FEW OR NO CLOUDS BELOW 12,000 FEET WITH NO
SIGNIFICANT WEATHER AND/OR OBSTRUCTIONS TO VISIBILITY. N/A MEANS
CURRENT SKY AND/OR WEATHER CONDITIONS ARE NOT AVAILABLE.

MNZ060>063-068>070-191200-
   Twin Cities Metro

CITY           SKY/WX    TMP DP  RH WIND       PRES   REMARKS
TWIN CITIES    FAIR      29  17  61 N7        30.38R WCI  22
ST PAUL        FAIR      27  16  63 NW8       30.39R WCI  19
CRYSTAL        FAIR      26  14  60 CALM      30.37R
BLAINE         FAIR      27  16  63 CALM      30.37R
LAKEVILLE      FAIR      21  16  79 NW6       30.37R WCI  14
EDEN PRAIRIE   FAIR      29  14  53 N8        30.36R WCI  21
SOUTH ST PAUL  FAIR      26  17  68 CALM      30.38R
LAKE ELMO      FAIR      23  16  74 CALM      30.38R
$$
MNZ001>005-007-008-013>017-022>024-027-028-191200-
   Northwest Minnesota

CITY           SKY/WX    TMP DP  RH WIND       PRES   REMARKS
BEMIDJI        FAIR      23  18  82 CALM      30.36R
HALLOCK        FAIR      32  27  80 SE3       30.35S
ROSEAU         FAIR      28  25  86 CALM      30.36R
WARROAD        FAIR      27  21  80 CALM      30.36S
THIEF RVR FALL FAIR      30  20  66 CALM      30.36S
CROOKSTON      FAIR      32  25  74 CALM      30.37S
FOSSTON        FAIR      25  14  63 CALM      30.36S
DETROIT LAKES  FAIR      30  27  86 CALM      30.37R
MOORHEAD       FAIR      30  28  93 S3        30.37S
PARK RAPIDS    FAIR      26  20  77 CALM      30.35R
MAHNOMEN       FAIR      29  21  70 SE6       30.36S WCI  23
$$
MNZ006-009>011-018-025>026-191200-
   North Central Minnesota

CITY           SKY/WX    TMP DP  RH WIND       PRES   REMARKS
BAUDETTE       FAIR      24  21  88 CALM      30.35R
FLAG ISLAND    FAIR      25  19  80 CALM      30.35S
INTL FALLS     FAIR      20  18  92 CALM      30.35R
WASKISH        FAIR      19  18  93 CALM      30.36R
BIG FORK         N/A     19  16  86 CALM      30.35R
LONGVILLE      FAIR      19  18  93 CALM      30.36R
GRAND RAPIDS   FAIR      24  14  65 CALM      30.37R
CRANE LAKE     FAIR      14  12  92 CALM      30.37S
ORR            FAIR      19  12  73 CALM      30.33R
COOK           FAIR      18  16  93 CALM      30.35R
WALKER         FAIR      23  17  76 CALM      30.36R
$$
MNZ012-019>021-037-191200-
   Northeast Minnesota

CITY           SKY/WX    TMP DP  RH WIND       PRES   REMARKS
DULUTH         FAIR      22  11  62 NW5       30.33R WCI  16
ELY            FAIR      16  14  93 CALM      30.34R
HIBBING        FAIR      18  16  92 CALM      30.34R
EVELETH        FAIR      19  16  90 CALM      30.35R
DULUTH HARBOR  FAIR      25  19  80 S5        30.36R WCI  19
TWO HARBORS    FAIR      25  18  74 CALM      30.31R
SILVER BAY     FAIR      18  16  93 CALM      30.31R
GRAND MARAIS     N/A     35  15  44 CALM      30.32R
G MARAIS ARPRT FAIR      25   9  50 N10       30.29R WCI  15
$$
MNZ029>031-032-039>041-046>048-054>057-064-191200-
   West Central Minnesota

CITY           SKY/WX    TMP DP  RH WIND       PRES   REMARKS
FERGUS FALLS   FAIR      34  21  60 S3        30.36R
WHEATON        CLOUDY    30  28  93 SE5       30.40R WCI  25
MORRIS         PTCLDY    30  28  93 CALM      30.37R
ALEXANDRIA     FAIR      28  21  75 CALM      30.37R
ELBOW LAKE     FAIR      30  28  93 E5        30.37R WCI  25
WADENA         FAIR      25  21  86 CALM      30.36R
GLENWOOD       FAIR     N/A N/A N/A W3          N/A
APPLETON       CLOUDY    28  27  93 CALM      30.39R
BENSON         PTCLDY    27  25  93 CALM      30.40R
ORTONVILLE     MOCLDY    30  27  86 CALM      30.38R
MADISON        CLOUDY    30  28  93 CALM      30.38R
WILLMAR        FAIR      28  25  86 CALM      30.41R
$$
MNZ033>034-036-042>043-049>051-058-059-191200-
   Central Minnesota

CITY           SKY/WX    TMP DP  RH WIND       PRES   REMARKS
ST CLOUD       FAIR      28  18  66 CALM      30.38R
SAUK CENTRE    FAIR      28  23  83 CALM      30.38R
PAYNESVILLE    FAIR      27  26  94 W3        30.38R
AITKIN         FAIR      18  16  93 CALM      30.35R
PINE RIVER     FAIR      21  18  86 CALM      30.39R
BRAINERD       FAIR      26  15  63 CALM      30.37R
STAPLES        FAIR      23  18  80 CALM      30.37R
LONG PRAIRIE   FAIR      27  21  80 CALM      30.38R
LITTLE FALLS   FAIR      25  12  58 CALM      30.38R
LITCHFIELD     FAIR      28  21  74 CALM      30.38S
BUFFALO        FAIR      29  15  58 CALM      30.39R
MAPLE LAKE     FAIR      26  19  76 CALM      30.39R
HUTCHINSON     FAIR      24  17  74 CALM      30.39R
$$
MNZ037-044-045-052-053-191200-
   East Central Minnesota

CITY           SKY/WX    TMP DP  RH WIND       PRES   REMARKS
PRINCETON      FAIR      25  18  74 CALM      30.37R
MORA           FAIR      27  14  59 CALM      30.39R
RUSH CITY      FAIR      27  15  58 NW5       30.37R WCI  22
MOOSE LAKE     FAIR      28  10  47 NW5       30.34R WCI  23
HINCKLEY       FAIR      30  14  51 NW6       30.36R WCI  24
CLOQUET        FAIR      27  10  50 W8        30.34R WCI  18
MCGREGOR       FAIR      25  19  80 CALM      30.36R
$$
MNZ071>073-080-081-089-090-097-098-191200-
   Southwest Minnesota

CITY           SKY/WX    TMP DP  RH WIND       PRES   REMARKS
MONTEVIDEO     PTCLDY    30  25  80 CALM      30.39R
GRANITE FALLS  CLOUDY    24  22  93 CALM      30.40R
CANBY          PTCLDY    27  25  92 SW3       30.40R
MARSHALL       CLOUDY    22  20  92 W7        30.39R WCI  13
REDWOOD FALLS  CLOUDY    30  17  58 N3        30.38R
OLIVIA         CLOUDY    30  25  80 CALM      30.38R
PIPESTONE      CLEAR    N/A N/A N/A CALM      30.36R
WINDOM           N/A     21   5  49 N5        30.36R WCI  15
WORTHINGTON    CLOUDY    24  15  68 N6        30.36R WCI  17
JACKSON        CLOUDY    18  10  73 N10       30.35S WCI   6
TRACY          CLOUDY    26  22  86 CALM      30.37R
SLAYTON        CLOUDY    23  18  82 N6        30.36R WCI  15
$$
MNZ065>067-074>077-082>085-091>093-191200-
   South Central Minnesota

CITY           SKY/WX    TMP DP  RH WIND       PRES   REMARKS
MANKATO        FAIR      23  17  78 NW6       30.38R WCI  16
NEW ULM        CLOUDY    25  16  68 NW6       30.38R WCI  18
ST JAMES       CLOUDY    12  10  92 NW6       30.39R WCI   3
FAIRMONT       PTCLDY    20  15  81 NW6       30.37R WCI  12
GLENCOE        FAIR      28  16  61 NW6       30.38R WCI  22
OWATONNA       FAIR      10   9  92 CALM      30.35R
WASECA         FAIR      19  14  79 N3        30.37R
ALBERT LEA     FAIR      18  14  86 CALM      30.34R
$$
MNZ078>079-086>088-094>096-191200-
   Southeast Minnesota

CITY           SKY/WX    TMP DP  RH WIND       PRES   REMARKS
ROCHESTER      FAIR      20  17  88 NW10      30.31R WCI   9
RED WING       FAIR      25  16  68 CALM      30.35R
STANTON        FAIR      18  14  84 CALM      30.35R
DODGE CENTER   FAIR      21  14  73 NW6       30.33R WCI  14
WINONA         FAIR      23  23 100 W5        30.33R WCI  17
AUSTIN         FAIR      18  16  93 N5        30.33R WCI  11
PRESTON        FAIR      24  18  79 N7        30.31R WCI  16
$$
ABBREVIATIONS USED IN REMARKS
   TC - TEMPERATURES IN CELSIUS
  WCI - WIND CHILL INDEX
   HX - HEAT INDEX
  VSB - VISIBILITY
$$




USA.gov is the U.S. government's official web portal to all federal, state and local government web resources and services.